TimePDT,TemperatureF,Dew PointF,Humidity,Sea Level PressureIn,VisibilityMPH,Wind Direction,Wind SpeedMPH,Gust SpeedMPH,PrecipitationIn,Events,Conditions,WindDirDegrees,DateUTC
12:53 AM,44.1,43.0,96,30.33,10.0,Calm,Calm,-,N/A,,Clear,0,2012-10-26 07:53:00
1:53 AM,43.0,42.1,97,30.33,10.0,East,3.5,-,N/A,,Partly Cloudy,100,2012-10-26 08:53:00
2:53 AM,43.0,42.1,97,30.31,10.0,ESE,4.6,-,N/A,,Clear,120,2012-10-26 09:53:00
3:53 AM,45.0,43.0,93,30.30,10.0,ESE,3.5,-,N/A,,Overcast,110,2012-10-26 10:53:00
4:53 AM,45.0,44.1,97,30.30,10.0,Calm,Calm,-,N/A,,Overcast,0,2012-10-26 11:53:00
6:53 AM,48.9,41.0,74,30.30,10.0,East,4.6,-,N/A,,Overcast,100,2012-10-26 13:53:00
7:53 AM,48.9,43.0,80,30.30,10.0,Calm,Calm,-,N/A,,Overcast,0,2012-10-26 14:53:00
8:53 AM,48.0,44.1,86,30.30,5.0,ESE,4.6,-,0.02,Rain,Light Rain,110,2012-10-26 15:53:00
9:53 AM,48.9,46.9,93,30.32,6.0,Calm,Calm,-,0.02,Rain,Light Rain,0,2012-10-26 16:53:00
10:53 AM,50.0,46.9,89,30.32,7.0,SE,3.5,-,0.00,Rain,Light Rain,140,2012-10-26 17:53:00
11:05 AM,50.0,48.2,94,30.30,10.0,SSE,3.5,-,0.00,,Overcast,160,2012-10-26 18:05:00
11:38 AM,51.8,50.0,94,30.28,10.0,SE,3.5,-,0.01,,Overcast,140,2012-10-26 18:38:00
11:53 AM,54.0,50.0,86,30.30,10.0,ESE,4.6,-,0.01,,Overcast,110,2012-10-26 18:53:00
12:06 PM,53.6,51.8,94,30.27,10.0,SSE,5.8,-,N/A,,Overcast,150,2012-10-26 19:06:00
12:53 PM,55.0,51.1,86,30.29,10.0,ESE,4.6,-,N/A,,Overcast,110,2012-10-26 19:53:00
1:30 PM,57.2,53.6,88,30.26,10.0,ENE,3.5,-,N/A,,Overcast,70,2012-10-26 20:30:00
1:53 PM,57.0,54.0,89,30.27,10.0,ESE,3.5,-,N/A,,Overcast,110,2012-10-26 20:53:00
2:53 PM,59.0,55.9,90,30.25,10.0,South,3.5,-,N/A,,Overcast,170,2012-10-26 21:53:00
3:53 PM,59.0,55.9,90,30.25,10.0,Calm,Calm,-,N/A,,Overcast,0,2012-10-26 22:53:00
4:53 PM,59.0,55.9,90,30.23,10.0,Calm,Calm,-,N/A,,Overcast,0,2012-10-26 23:53:00
5:40 PM,59.0,55.4,88,30.20,10.0,Calm,Calm,-,N/A,,Overcast,0,2012-10-27 00:40:00
5:50 PM,57.2,55.4,94,30.20,10.0,West,3.5,-,N/A,,Overcast,270,2012-10-27 00:50:00
5:53 PM,57.9,55.9,93,30.22,10.0,West,3.5,-,N/A,,Overcast,270,2012-10-27 00:53:00
6:53 PM,57.0,55.9,96,30.22,10.0,Calm,Calm,-,N/A,,Overcast,0,2012-10-27 01:53:00
7:53 PM,57.0,55.9,96,30.23,10.0,Calm,Calm,-,N/A,,Overcast,0,2012-10-27 02:53:00
8:51 PM,57.2,55.4,94,30.20,8.0,Calm,Calm,-,N/A,,Overcast,0,2012-10-27 03:51:00
8:53 PM,57.0,55.9,96,30.22,8.0,Calm,Calm,-,N/A,,Overcast,0,2012-10-27 03:53:00
9:53 PM,57.0,55.9,96,30.23,10.0,Calm,Calm,-,N/A,,Overcast,0,2012-10-27 04:53:00
10:53 PM,55.9,55.0,97,30.22,3.0,Calm,Calm,-,N/A,,Overcast,0,2012-10-27 05:53:00
11:06 PM,55.4,55.4,100,30.20,2.0,Calm,Calm,-,N/A,,Mostly Cloudy,0,2012-10-27 06:06:00
11:13 PM,53.6,53.6,100,30.19,1.2,Calm,Calm,-,N/A,,Mostly Cloudy,0,2012-10-27 06:13:00
11:32 PM,53.6,53.6,100,30.19,0.2,NW,3.5,-,N/A,Fog,Fog,320,2012-10-27 06:32:00
11:53 PM,54.0,54.0,100,30.21,0.2,Calm,Calm,-,N/A,Fog,Fog,0,2012-10-27 06:53:00